H1 CPF 2 NER 2024 3 3 9 063 01 glonass105 H2 0705202 9105 32276 2024 3 3 0 0 0 2024 3 6 23 45 0 900 1 1 0 0 0 1 H9 10 0 60372 0.00000 0 25509475.489 1026117.209 469299.694 10 0 60372 900.00000 0 25369774.173 796296.651 -2771089.149 10 0 60372 1800.00000 0 24819136.828 599828.649 -5957798.536 10 0 60372 2700.00000 0 23873840.422 492622.909 -9029077.262 10 0 60372 3600.00000 0 22563170.958 526247.659 -11925380.044 10 0 60372 4500.00000 0 20928260.573 745516.102 -14590516.778 10 0 60372 5400.00000 0 19020447.942 1186357.502 -16972739.376 10 0 60372 6300.00000 0 16899229.339 1874063.305 -19025745.392 10 0 60372 7200.00000 0 14629884.672 2821983.292 -20709579.109 10 0 60372 8100.00000 0 12280876.550 4030728.152 -21991412.596 10 0 60372 9000.00000 0 9921129.829 5487913.951 -22846191.441 10 0 60372 9900.00000 0 7617304.381 7168461.469 -23257132.199 10 0 60372 10800.00000 0 5431174.225 9035440.226 -23216061.334 10 0 60372 11700.00000 0 3417222.014 11041424.257 -22723588.271 10 0 60372 12600.00000 0 1620549.222 13130305.006 -21789108.158 10 0 60372 13500.00000 0 75189.386 15239487.304 -20430633.193 10 0 60372 14400.00000 0 -1197104.857 17302377.870 -18674454.574 10 0 60372 15300.00000 0 -2187549.918 19251062.862 -16554640.551 10 0 60372 16200.00000 0 -2900465.599 21019062.488 -14112379.379 10 0 60372 17100.00000 0 -3352850.113 22544046.762 -11395179.308 10 0 60372 18000.00000 0 -3573414.016 23770397.583 -8455940.927 10 0 60372 18900.00000 0 -3601114.596 24651508.330 -5351920.116 10 0 60372 19800.00000 0 -3483253.727 25151723.064 -2143602.414 10 0 60372 20700.00000 0 -3273221.182 25247832.525 1106488.170 10 0 60372 21600.00000 0 -3027980.702 24930063.096 4335021.340 10 0 60372 22500.00000 0 -2805407.275 24202516.589 7479108.159 10 0 60372 23400.00000 0 -2661590.381 23083042.379 10477538.235 10 0 60372 24300.00000 0 -2648219.274 21602547.778 13271980.985 10 0 60372 25200.00000 0 -2810162.469 19803776.550 15808126.491 10 0 60372 26100.00000 0 -3183344.949 17739608.116 18036743.067 10 0 60372 27000.00000 0 -3793013.409 15470950.085 19914630.805 10 0 60372 27900.00000 0 -4652462.935 13064313.545 21405452.945 10 0 60372 28800.00000 0 -5762278.568 10589173.461 22480429.670 10 0 60372 29700.00000 0 -7110123.222 8115224.813 23118882.074 10 0 60372 30600.00000 0 -8671080.306 5709648.749 23308617.147 10 0 60372 31500.00000 0 -10408536.158 3434501.951 23046147.781 10 0 60372 32400.00000 0 -12275564.997 1344336.509 22336744.988 10 0 60372 33300.00000 0 -14216758.393 -515852.435 21194322.533 10 0 60372 34200.00000 0 -16170423.028 -2112268.068 19641157.147 10 0 60372 35100.00000 0 -18071055.523 -3423476.318 17707450.360 10 0 60372 36000.00000 0 -19851991.868 -4441047.183 15430740.609 10 0 60372 36900.00000 0 -21448121.862 -5169648.418 12855176.925 10 0 60372 37800.00000 0 -22798556.294 -5626589.570 10030667.843 10 0 60372 38700.00000 0 -23849136.670 -5840837.028 7011921.354 10 0 60372 39600.00000 0 -24554683.513 -5851542.405 3857393.818 10 0 60372 40500.00000 0 -24880889.951 -5706146.644 628167.292 10 0 60372 41400.00000 0 -24805781.892 -5458139.812 -2613223.722 10 0 60372 42300.00000 0 -24320683.615 -5164570.747 -5803994.175 10 0 60372 43200.00000 0 -23430648.137 -4883411.262 -8882316.360 10 0 60372 44100.00000 0 -22154333.695 -4670885.681 -11788511.025 10 0 60372 45000.00000 0 -20523330.556 -4578878.102 -14466199.026 10 0 60372 45900.00000 0 -18580965.091 -4652526.672 -16863391.630 10 0 60372 46800.00000 0 -16380629.635 -4928106.559 -18933498.593 10 0 60372 47700.00000 0 -13983706.448 -5431291.529 -20636234.622 10 0 60372 48600.00000 0 -11457170.960 -6175868.406 -21938406.633 10 0 60372 49500.00000 0 -8870972.881 -7162960.021 -22814566.419 10 0 60372 50400.00000 0 -6295303.226 -8380791.179 -23247515.648 10 0 60372 51300.00000 0 -3797860.194 -9805009.598 -23228652.831 10 0 60372 52200.00000 0 -1441227.192 -11399550.572 -22758154.715 10 0 60372 53100.00000 0 719527.994 -13118011.245 -21844987.549 10 0 60372 54000.00000 0 2638932.866 -14905478.771 -20506746.893 10 0 60372 54900.00000 0 4282781.786 -16700737.227 -18769327.858 10 0 60372 55800.00000 0 5629329.357 -18438761.662 -16666431.071 10 0 60372 56700.00000 0 6669955.499 -20053395.030 -14238913.016 10 0 60372 57600.00000 0 7409274.335 -21480095.377 -11533992.711 10 0 60372 58500.00000 0 7864682.548 -22658637.091 -8604329.896 10 0 60372 59400.00000 0 8065366.874 -23535651.427 -5506992.856 10 0 60372 60300.00000 0 8050813.591 -24066898.035 -2302336.576 10 0 60372 61200.00000 0 7868884.377 -24219170.362 947185.846 10 0 60372 62100.00000 0 7573541.630 -23971753.429 4178254.002 10 0 60372 63000.00000 0 7222321.492 -23317371.626 7327927.713 10 0 60372 63900.00000 0 6873663.581 -22262586.132 10334885.368 10 0 60372 64800.00000 0 6584212.416 -20827625.241 13140627.562 10 0 60372 65700.00000 0 6406206.432 -19045655.214 15690621.494 10 0 60372 66600.00000 0 6385066.293 -16961523.121 17935363.133 10 0 60372 67500.00000 0 6557285.199 -14630025.464 19831336.330 10 0 60372 68400.00000 0 6948710.522 -12113776.126 21341850.568 10 0 60372 69300.00000 0 7573289.042 -9480763.702 22437741.826 10 0 60372 70200.00000 0 8432328.083 -6801700.690 23097924.138 10 0 60372 71100.00000 0 9514302.854 -4147275.072 23309782.543 10 0 60372 72000.00000 0 10795217.309 -1585418.219 23069401.275 10 0 60372 72900.00000 0 12239502.694 821298.324 22381624.210 10 0 60372 73800.00000 0 13801415.687 3018030.559 21259947.645 10 0 60372 74700.00000 0 15426877.439 4959697.803 19726248.415 10 0 60372 75600.00000 0 17055676.778 6612604.136 17810353.244 10 0 60372 76500.00000 0 18623945.945 7955580.418 15549457.879 10 0 60372 77400.00000 0 20066806.069 8980601.588 12987407.190 10 0 60372 78300.00000 0 21321072.692 9692855.590 10173849.750 10 0 60372 79200.00000 0 22327909.124 10110262.816 7163282.678 10 0 60372 80100.00000 0 23035317.407 10262467.471 4014004.484 10 0 60372 81000.00000 0 23400363.518 10189344.183 786995.443 10 0 60372 81900.00000 0 23391043.898 9939082.910 -2455253.690 10 0 60372 82800.00000 0 22987715.140 9565932.752 -5649942.644 10 0 60372 83700.00000 0 22184026.850 9127699.595 -8735169.690 10 0 60372 84600.00000 0 20987317.777 8683102.550 -11651124.002 10 0 60372 85500.00000 0 19418457.674 8289100.313 -14341239.676 10 0 60373 0.00000 0 17511140.362 7998299.854 -16753289.241 10 0 60373 900.00000 0 15310654.778 7856556.467 -18840397.013 10 0 60373 1800.00000 0 12872186.306 7900866.930 -20561949.611 10 0 60373 2700.00000 0 10258714.098 8157644.609 -21884390.329 10 0 60373 3600.00000 0 7538592.837 8641450.550 -22781878.497 10 0 60373 4500.00000 0 4782917.275 9354235.183 -23236802.007 10 0 60373 5400.00000 0 2062778.166 10285124.244 -23240132.271 10 0 60373 6300.00000 0 -553477.068 11410759.822 -22791613.891 10 0 60373 7200.00000 0 -3002865.455 12696184.176 -21899784.386 10 0 60373 8100.00000 0 -5230162.434 14096231.023 -20581822.427 10 0 60373 9000.00000 0 -7189968.877 15557367.434 -18863226.357 10 0 60373 9900.00000 0 -8848364.660 17019910.049 -16777328.075 10 0 60373 10800.00000 0 -10184079.437 18420523.049 -14364650.800 10 0 60373 11700.00000 0 -11189131.464 19694892.797 -11672122.480 10 0 60373 12600.00000 0 -11868907.681 20780465.998 -8752159.881 10 0 60373 13500.00000 0 -12241682.129 21619134.987 -5661641.341 10 0 60373 14400.00000 0 -12337593.751 22159755.551 -2460788.757 10 0 60373 15300.00000 0 -12197127.909 22360389.580 788018.343 10 0 60373 16200.00000 0 -11869167.334 22190176.413 4021472.189 10 0 60373 17100.00000 0 -11408696.811 21630752.703 7176584.162 10 0 60373 18000.00000 0 -10874260.693 20677159.985 10191924.244 10 0 60373 18900.00000 0 -10325282.863 19338201.307 13008826.987 10 0 60373 19800.00000 0 -9819364.279 17636231.889 15572539.407 10 0 60373 20700.00000 0 -9409673.825 15606393.077 17833287.706 10 0 60373 21600.00000 0 -9142543.651 13295322.453 19747241.902 10 0 60373 22500.00000 0 -9055370.894 10759394.974 21277359.903 10 0 60373 23400.00000 0 -9174914.143 8062569.508 22394095.399 10 0 60373 24300.00000 0 -9516055.778 5273931.209 23075956.954 10 0 60373 25200.00000 0 -10081081.362 2465032.311 23309908.883 10 0 60373 26100.00000 0 -10859505.282 -292858.233 23091607.557 10 0 60373 27000.00000 0 -11828448.903 -2931482.793 22425470.064 10 0 60373 27900.00000 0 -12953554.479 -5388188.757 21324575.081 10 0 60373 28800.00000 0 -14190395.912 -7608281.878 19810398.886 10 0 60373 29700.00000 0 -15486326.976 -9547043.603 17912392.241 10 0 60373 30600.00000 0 -16782689.710 -11171330.767 15667406.574 10 0 60373 31500.00000 0 -18017290.897 -12460693.340 13118980.528 10 0 60373 32400.00000 0 -19127043.555 -13407965.782 10316500.294 10 0 60373 33300.00000 0 -20050663.549 -14019309.218 7314249.377 10 0 60373 34200.00000 0 -20731309.139 -14313704.164 4170365.509 10 0 60373 35100.00000 0 -21119053.487 -14321916.191 945724.071 10 0 60373 36000.00000 0 -21173086.889 -14084978.514 -2297231.155 10 0 60373 36900.00000 0 -20863556.579 -13652255.547 -5495687.959 10 0 60373 37800.00000 0 -20172966.592 -13079168.695 -8587673.900 10 0 60373 38700.00000 0 -19097078.409 -12424679.836 -11513249.884 10 0 60373 39600.00000 0 -17645273.727 -11748638.075 -14215666.471 10 0 60373 40500.00000 0 -15840362.651 -11109101.000 -16642460.931 10 0 60373 41400.00000 0 -13717843.639 -10559742.971 -18746474.086 10 0 60373 42300.00000 0 -11324644.276 -10147459.459 -20486767.378 10 0 60373 43200.00000 0 -8717393.366 -9910268.501 -21829422.435 10 0 60373 44100.00000 0 -5960294.427 -9875598.106 -22748207.504 10 0 60373 45000.00000 0 -3122687.379 -10059032.574 -23225097.452 10 0 60373 45900.00000 0 -276398.313 -10463571.685 -23250636.680 10 0 60373 46800.00000 0 2507013.640 -11079435.377 -22824137.133 10 0 60373 47700.00000 0 5158998.602 -11884423.784 -21953706.516 10 0 60373 48600.00000 0 7616633.759 -12844819.095 -20656105.057 10 0 60373 49500.00000 0 9825007.762 -13916792.795 -18956432.353 10 0 60373 50400.00000 0 11739272.098 -15048260.206 -16887649.254 10 0 60373 51300.00000 0 13326273.471 -16181104.945 -14489943.091 10 0 60373 52200.00000 0 14565698.609 -17253679.769 -11809947.853 10 0 60373 53100.00000 0 15450683.296 -18203477.942 -8899834.241 10 0 60373 54000.00000 0 15987860.195 -18969861.533 -5816287.384 10 0 60373 54900.00000 0 16196843.931 -19496730.150 -2619392.735 10 0 60373 55800.00000 0 16109176.024 -19735015.814 628547.116 10 0 60373 56700.00000 0 15766775.538 -19644896.950 3864240.339 10 0 60373 57600.00000 0 15219962.584 -19197636.469 7024652.999 10 0 60373 58500.00000 0 14525140.138 -18376965.071 10048249.543 10 0 60373 59400.00000 0 13742234.190 -17179950.609 12876201.030 10 0 60373 60300.00000 0 12932002.294 -15617316.426 15453536.455 10 0 60373 61200.00000 0 12153325.848 -13713195.350 17730214.003 10 0 60373 62100.00000 0 11460601.551 -11504330.041 19662091.156 10 0 60373 63000.00000 0 10901342.644 -9038753.777 21211775.109 10 0 60373 63900.00000 0 10514091.045 -6374007.577 22349337.669 10 0 60373 64800.00000 0 10326727.701 -3574968.599 23052881.911 10 0 60373 65700.00000 0 10355251.212 -711380.612 23308950.991 10 0 60373 66600.00000 0 10603074.781 2144810.800 23112772.625 10 0 60373 67500.00000 0 11060869.589 4922208.097 22468335.981 10 0 60373 68400.00000 0 11706959.852 7552683.588 21388300.722 10 0 60373 69300.00000 0 12508251.875 9973961.593 19893740.955 10 0 60373 70200.00000 0 13421657.364 12131955.602 18013729.685 10 0 60373 71100.00000 0 14395950.943 13982765.410 15784772.101 10 0 60373 72000.00000 0 15373983.958 15494253.262 13250098.584 10 0 60373 72900.00000 0 16295162.036 16647135.504 10458830.810 10 0 60373 73800.00000 0 17098082.985 17435546.064 7465036.467 10 0 60373 74700.00000 0 17723225.001 17867049.878 4326690.209 10 0 60373 75600.00000 0 18115572.998 17962106.895 1104560.176 10 0 60373 76500.00000 0 18227073.224 17753009.875 -2138959.174 10 0 60373 77400.00000 0 18018813.371 17282340.966 -5341046.034 10 0 60373 78300.00000 0 17462836.429 16601011.815 -8439659.508 10 0 60373 79200.00000 0 16543511.732 15765969.441 -11374734.355 10 0 60373 80100.00000 0 15258404.685 14837663.829 -14089339.559 10 0 60373 81000.00000 0 13618607.415 13877383.259 -16530778.699 10 0 60373 81900.00000 0 11648514.761 12944568.934 -18651611.104 10 0 60373 82800.00000 0 9385052.916 12094221.442 -20410574.187 10 0 60373 83700.00000 0 6876390.801 11374507.989 -21773389.114 10 0 60373 84600.00000 0 4180185.672 10824671.114 -22713434.077 10 0 60373 85500.00000 0 1361433.987 10473327.234 -23212271.740 10 0 60374 0.00000 0 -1509984.696 10337227.291 -23260020.105 10 0 60374 900.00000 0 -4361971.670 10420532.584 -22855558.747 10 0 60374 1800.00000 0 -7122967.401 10714637.592 -22006565.455 10 0 60374 2700.00000 0 -9724695.262 11198548.302 -20729381.509 10 0 60374 3600.00000 0 -12104772.932 11839801.590 -19048706.836 10 0 60374 4500.00000 0 -14209084.050 12595887.899 -16997129.892 10 0 60374 5400.00000 0 -15993810.564 13416117.955 -14614500.419 10 0 60374 6300.00000 0 -17427040.359 14243855.065 -11947156.469 10 0 60374 7200.00000 0 -18489882.417 15019018.493 -9047020.488 10 0 60374 8100.00000 0 -19177042.499 15680751.395 -5970582.085 10 0 60374 9000.00000 0 -19496835.270 16170139.319 -2777787.886 10 0 60374 9900.00000 0 -19470632.864 16432862.753 469138.892 10 0 60374 10800.00000 0 -19131774.145 16421669.822 3706924.806 10 0 60374 11700.00000 0 -18523982.084 16098562.863 6872493.087 10 0 60374 12600.00000 0 -17699357.828 15436604.963 9904205.136 10 0 60374 13500.00000 0 -16716038.095 14421268.961 12743071.002 10 0 60374 14400.00000 0 -15635616.742 13051271.273 15333904.111 10 0 60374 15300.00000 0 -14520441.046 11338855.051 17626396.986 10 0 60374 16200.00000 0 -13430898.066 9309510.872 19576096.791 10 0 60374 17100.00000 0 -12422806.229 7001146.945 21145262.008 10 0 60374 18000.00000 0 -11545022.146 4462744.126 22303584.289 10 0 60374 18900.00000 0 -10837362.875 1752552.371 23028762.629 10 0 60374 19800.00000 0 -10328929.953 -1064095.854 23306920.070 10 0 60374 20700.00000 0 -10036904.178 -3917264.129 23132856.317 10 0 60374 21600.00000 0 -9965860.056 -6735079.923 22510132.854 10 0 60374 22500.00000 0 -10107626.951 -9446481.713 21450990.134 10 0 60374 23400.00000 0 -10441701.204 -11983932.484 19976099.472 10 0 60374 24300.00000 0 -10936190.610 -14285988.522 18114155.092 10 0 60374 25200.00000 0 -11549250.703 -16299618.617 15901314.515 10 0 60374 26100.00000 0 -12230952.089 -17982179.219 13380498.104 10 0 60374 27000.00000 0 -12925500.291 -19302965.236 10600560.961 10 0 60374 27900.00000 0 -13573715.125 -20244273.751 7615352.652 10 0 60374 28800.00000 0 -14115665.875 -20801937.813 4482682.270 10 0 60374 29700.00000 0 -14493352.028 -20985309.153 1263208.081 10 0 60374 30600.00000 0 -14653317.399 -20816691.553 -1980727.545 10 0 60374 31500.00000 0 -14549088.002 -20330248.887 -5186296.073 10 0 60374 32400.00000 0 -14143331.178 -19570433.775 -8291391.120 10 0 60374 33300.00000 0 -13409644.952 -18590002.634 -11235824.347 10 0 60374 34200.00000 0 -12333901.669 -17447700.004 -13962486.240 10 0 60374 35100.00000 0 -10915088.355 -16205708.798 -16418449.711 10 0 60374 36000.00000 0 -9165606.908 -14926972.912 -18555995.495 10 0 60374 36900.00000 0 -7111019.565 -13672504.044 -20333539.623 10 0 60374 37800.00000 0 -4789248.074 -12498785.367 -21716445.078 10 0 60374 38700.00000 0 -2249257.575 -11455380.827 -22677701.802 10 0 60374 39600.00000 0 450722.225 -10582850.456 -23198461.527 10 0 60374 40500.00000 0 3245366.724 -9911059.526 -23268416.511 10 0 60374 41400.00000 0 6064728.535 -9457953.135 -22886014.059 10 0 60374 42300.00000 0 8836910.633 -9228848.490 -22058501.664 10 0 60374 43200.00000 0 11490830.320 -9216275.603 -20801800.732 10 0 60374 44100.00000 0 13958959.469 -9400374.023 -19140210.119 10 0 60374 45000.00000 0 16179926.862 -9749829.792 -17105944.062 10 0 60374 45900.00000 0 18100873.747 -10223313.720 -14738512.452 10 0 60374 46800.00000 0 19679463.620 -10771360.533 -12083954.749 10 0 60374 47700.00000 0 20885461.440 -11338609.349 -9193942.100 10 0 60374 48600.00000 0 21701815.542 -11866310.054 -6124765.218 10 0 60374 49500.00000 0 22125196.526 -12294988.432 -2936228.273 10 0 60374 50400.00000 0 22165970.526 -12567155.725 309528.655 10 0 60374 51300.00000 0 21847608.594 -12629946.194 3549254.299 10 0 60374 52200.00000 0 21205558.108 -12437569.206 6719832.717 10 0 60374 53100.00000 0 20285625.255 -11953470.407 9759525.679 10 0 60374 54000.00000 0 19141938.596 -11152109.188 12609185.279 10 0 60374 54900.00000 0 17834581.430 -10020276.288 15213411.990 10 0 60374 55800.00000 0 16426994.565 -8557895.341 17521634.810 10 0 60374 56700.00000 0 14983260.372 -6778274.372 19489092.214 10 0 60374 57600.00000 0 13565383.447 -4707796.764 21077695.099 10 0 60374 58500.00000 0 12230682.631 -2385064.967 22256755.599 10 0 60374 59400.00000 0 11029403.740 140466.855 23003568.781 10 0 60374 60300.00000 0 10002652.285 2810313.865 23303837.258 10 0 60374 61200.00000 0 9180731.554 5559159.218 23151931.979 10 0 60374 62100.00000 0 8581953.895 8317339.121 22550985.584 10 0 60374 63000.00000 0 8211973.085 11013511.513 21512817.791 10 0 60374 63900.00000 0 8063663.747 13577398.435 20057695.279 10 0 60374 64800.00000 0 8117551.128 15942489.493 18213931.384 10 0 60374 65700.00000 0 8342771.699 18048595.632 16017333.656 10 0 60374 66600.00000 0 8698523.257 19844148.787 13510509.967 10 0 60374 67500.00000 0 9135943.009 21288153.444 10742046.268 10 0 60374 68400.00000 0 9600334.540 22351710.535 7765571.350 10 0 60374 69300.00000 0 10033650.154 23019051.473 4638726.035 10 0 60374 70200.00000 0 10377124.563 23288040.522 1422056.000 10 0 60374 71100.00000 0 10573949.499 23170125.207 -1822151.136 10 0 60374 72000.00000 0 10571877.014 22689737.236 -5031062.685 10 0 60374 72900.00000 0 10325642.134 21883169.310 -8142509.186 10 0 60374 73800.00000 0 9799102.698 20796974.494 -11096181.396 10 0 60374 74700.00000 0 8967005.917 19485954.924 -13834793.253 10 0 60374 75600.00000 0 7816306.496 18010823.541 -16305188.707 10 0 60374 76500.00000 0 6346979.500 16435636.034 -18459371.347 10 0 60374 77400.00000 0 4572292.067 14825099.964 -20255437.036 10 0 60374 78300.00000 0 2518520.415 13241873.162 -21658391.581 10 0 60374 79200.00000 0 224121.541 11743964.116 -22640837.471 10 0 60374 80100.00000 0 -2261608.270 10382342.988 -23183516.066 10 0 60374 81000.00000 0 -4880334.602 9198863.344 -23275694.187 10 0 60374 81900.00000 0 -7566872.889 8224581.888 -22915386.846 10 0 60374 82800.00000 0 -10251673.864 7478547.146 -22109410.781 10 0 60374 83700.00000 0 -12863504.332 6967108.503 -20873266.657 10 0 60374 84600.00000 0 -15332212.387 6683775.316 -19230850.953 10 0 60374 85500.00000 0 -17591462.051 6609632.622 -17214001.954 10 0 60375 0.00000 0 -19581322.818 6714296.419 -14861887.856 10 0 60375 900.00000 0 -21250606.338 6957368.453 -12220246.772 10 0 60375 1800.00000 0 -22558849.026 7290328.726 -9340496.268 10 0 60375 2700.00000 0 -23477860.204 7658785.265 -6278725.617 10 0 60375 3600.00000 0 -23992767.396 8004984.767 -3094593.980 10 0 60375 4500.00000 0 -24102515.568 8270476.391 149844.229 10 0 60375 5400.00000 0 -23819799.199 8398814.089 3391362.408 10 0 60375 6300.00000 0 -23170430.639 8338181.160 6566807.895 10 0 60375 7200.00000 0 -22192172.405 8043824.044 9614345.239 10 0 60375 8100.00000 0 -20933084.104 7480190.728 12474670.943 10 0 60375 9000.00000 0 -19449455.303 6622682.066 15092174.802 10 0 60375 9900.00000 0 -17803413.144 5458941.178 17416024.427 10 0 60375 10800.00000 0 -16060306.912 3989626.091 19401151.537 10 0 60375 11700.00000 0 -14285980.679 2228633.014 21009121.096 10 0 60375 12600.00000 0 -12544049.211 202761.051 22208867.040 10 0 60375 13500.00000 0 -10893291.412 -2049167.327 22977281.454 10 0 60375 14400.00000 0 -9385269.881 -4477692.925 23299647.073 10 0 60375 15300.00000 0 -8062275.025 -7024555.539 23169906.235 10 0 60375 16200.00000 0 -6955678.025 -9624902.302 22590762.495 10 0 60375 17100.00000 0 -6084759.461 -12209777.090 21573614.233 10 0 60375 18000.00000 0 -5456060.439 -14708788.185 20138322.549 10 0 60375 18900.00000 0 -5063281.196 -17052844.280 18312818.630 10 0 60375 19800.00000 0 -4887729.499 -19176846.416 16132558.517 10 0 60375 20700.00000 0 -4899298.488 -21022225.312 13639835.812 10 0 60375 21600.00000 0 -5057931.789 -22539220.047 10882965.344 10 0 60375 22500.00000 0 -5315513.699 -23688804.660 7915353.001 10 0 60375 23400.00000 0 -5618104.713 -24444183.616 4794469.119 10 0 60375 24300.00000 0 -5908428.412 -24791794.878 1580744.501 10 0 60375 25200.00000 0 -6128505.310 -24731779.372 -1663590.349 10 0 60375 26100.00000 0 -6222323.069 -24277897.676 -4875700.992 10 0 60375 27000.00000 0 -6138430.862 -23456897.385 -7993357.370 10 0 60375 27900.00000 0 -5832348.634 -22307357.391 -10956131.899 10 0 60375 28800.00000 0 -5268689.625 -20878057.086 -13706564.583 10 0 60375 29700.00000 0 -4422906.142 -19225937.896 -16191273.036 10 0 60375 30600.00000 0 -3282584.106 -17413741.684 -18361986.277 10 0 60375 31500.00000 0 -1848230.483 -15507423.960 -20176482.429 10 0 60375 32400.00000 0 -133518.572 -13573449.212 -21599412.292 10 0 60375 33300.00000 0 1835021.413 -11676080.760 -22602992.735 10 0 60375 34200.00000 0 4018855.971 -9874777.938 -23167556.170 10 0 60375 35100.00000 0 6368813.056 -8221809.082 -23281944.950 10 0 60375 36000.00000 0 8826903.343 -6760180.081 -22943742.280 10 0 60375 36900.00000 0 11328524.150 -5521965.347 -22159334.178 10 0 60375 37800.00000 0 13804955.768 -4527111.398 -20943800.140 10 0 60375 38700.00000 0 16186047.203 -3782763.665 -19320633.389 10 0 60375 39600.00000 0 18402979.760 -3283145.214 -17321294.934 10 0 60375 40500.00000 0 20390993.034 -3009992.828 -14984609.044 10 0 60375 41400.00000 0 22091958.790 -2933532.129 -12356011.075 10 0 60375 42300.00000 0 23456694.083 -3013950.439 -9486661.904 10 0 60375 43200.00000 0 24446915.624 -3203304.490 -6432446.231 10 0 60375 44100.00000 0 25036752.334 -3447781.282 -3252874.731 10 0 60375 45000.00000 0 25213751.711 -3690214.941 -9912.441 10 0 60375 45900.00000 0 24979337.276 -3872751.226 3233242.507 10 0 60375 46800.00000 0 24348697.913 -3939544.876 6413404.486 10 0 60375 47700.00000 0 23350114.336 -3839373.603 9468644.408 10 0 60375 48600.00000 0 22023752.102 -3528056.257 12339506.465 10 0 60375 49500.00000 0 20419973.387 -2970571.366 14970172.681 10 0 60375 50400.00000 0 18597240.106 -2142785.409 17309551.752 10 0 60375 51300.00000 0 16619698.043 -1032717.243 19312270.658 10 0 60375 52200.00000 0 14554544.724 358714.877 20939549.987 10 0 60375 53100.00000 0 12469292.228 2017495.001 22159946.568 10 0 60375 54000.00000 0 10429039.916 3916867.962 22949950.114 10 0 60375 54900.00000 0 8493870.746 6018239.267 23294423.629 10 0 60375 55800.00000 0 6716479.072 8272578.456 23186880.498 10 0 60375 56700.00000 0 5140127.415 10622267.258 22629594.374 10 0 60375 57600.00000 0 3797015.501 13003315.632 21633541.007 10 0 60375 58500.00000 0 2707127.434 15347853.861 20218174.192 10 0 60375 59400.00000 0 1877602.776 17586797.703 18411040.859 10 0 60375 60300.00000 0 1302655.574 19652576.761 16247243.115 10 0 60375 61200.00000 0 964042.761 21481813.651 13768757.623 10 0 60375 62100.00000 0 832060.673 23017843.746 11023625.234 10 0 60375 63000.00000 0 867026.768 24212971.728 8065025.970 10 0 60375 63900.00000 0 1021183.577 25030372.037 4950256.647 10 0 60375 64800.00000 0 1240944.554 25445554.864 1739630.152 10 0 60375 65700.00000 0 1469387.371 25447337.043 -1504683.098 10 0 60375 66600.00000 0 1648889.838 25038277.645 -4719849.777 10 0 60375 67500.00000 0 1723797.697 24234559.948 -7843581.916 10 0 60375 68400.00000 0 1643012.016 23065324.457 -10815336.027 10 0 60375 69300.00000 0 1362387.184 21571480.251 -13577480.340 10 0 60375 70200.00000 0 846838.155 19804043.545 -16076408.006 10 0 60375 71100.00000 0 72067.550 17822071.928 -18263575.040 10 0 60375 72000.00000 0 -974161.214 15690279.457 -20096443.124 10 0 60375 72900.00000 0 -2291259.860 13476431.227 -21539309.089 10 0 60375 73800.00000 0 -3865594.309 11248625.199 -22564004.976 10 0 60375 74700.00000 0 -5670818.432 9072573.968 -23150454.772 10 0 60375 75600.00000 0 -7668750.980 7008999.320 -23287076.588 10 0 60375 76500.00000 0 -9810761.473 5111247.956 -22971021.688 10 0 60375 77400.00000 0 -12039609.383 3423227.911 -22208244.818 10 0 60375 78300.00000 0 -14291661.703 1977751.947 -21013403.300 10 0 60375 79200.00000 0 -16499397.659 795357.515 -19409585.624 10 0 60375 80100.00000 0 -18594096.735 -116346.981 -17427873.595 10 0 60375 81000.00000 0 -20508597.795 -762781.955 -15106745.472 10 0 60375 81900.00000 0 -22180013.491 -1161938.188 -12491330.837 10 0 60375 82800.00000 0 -23552285.341 -1343379.684 -9632531.298 10 0 60375 83700.00000 0 -24578471.176 -1346750.461 -6586024.105 10 0 60375 84600.00000 0 -25222667.619 -1219849.386 -3411168.555 10 0 60375 85500.00000 0 -25461485.615 -1016355.840 -169837.445 99